Weather History for Columbus, OH

Change the Weather History Date:

Tuesday, January 29, 2013

  Actual Average Record
Temperature  
Mean Temperature 57 °F 30 °F  
Max Temperature 67 °F 37 °F 67 °F (2013)
Min Temperature 47 °F 23 °F -13 °F (1963)
Degree Days  
Heating Degree Days 8 35  
Month to date heating degree days 964 996  
Since 1 July heating degree days 2865 2987  
Cooling Degree Days 0 0  
Month to date cooling degree days 0 0  
Year to date cooling degree days 0 0  
Growing Degree Days 6 (Base 50)    
Moisture  
Dew Point 51 °F    
Average Humidity 82    
Maximum Humidity 100    
Minimum Humidity 63    
Precipitation  
Precipitation 0.00 in 0.08 in 1.16 in (1969)
Month to date precipitation 1.70 2.48  
Year to date precipitation 1.70 2.48  
Snow  
Snow 0.00 in 0.30 in 3.60 in (1925)
Month to date snowfall 4.9 8.3  
Since 1 July snowfall 20.6 14.4  
Snow Depth 0.00 in    
Sea Level Pressure  
Sea Level Pressure 29.94 in    
Wind  
Wind Speed 12 mph (South)    
Max Wind Speed 23 mph    
Max Gust Speed 32 mph    
Visibility 6 miles    
Events      
T = Trace of Precipitation, MM = Missing Value Source: NWS Daily Summary

Daily Weather History Graph

Daily Weather History Graph

Search for Another Location

Airport:

Trip Planner

Search our weather history database for the weather conditions in past years. The results will help you decide how hot, cold, wet, or windy it might be!

Date:

Astronomy

Jan. 29, 2013 Rise Set
Actual Time 7:42 AM EST 5:47 PM EST
Civil Twilight 7:13 AM EST 6:16 PM EST
Nautical Twilight 6:41 AM EST 6:48 PM EST
Astronomical Twilight 6:09 AM EST 7:20 PM EST
Moon 8:42 PM EST (1/29) 8:38 AM EST (1/29)
Length of Visible Light 11h 02m
Length of Day
10h 04m
Waning Gibbous, 94% of the Moon is Illuminated
Jan 29
Waning Gibbous
Feb 3
Last Quarter
Feb 10
New
Feb 17
First Quarter
Feb 25
Full

Hourly Weather History & Observations

Time (EST) Temp. Dew Point Humidity Pressure Visibility Wind Dir Wind Speed Gust Speed Precip Events Conditions
12:07 AM 50.0 °F 50.0 °F 100% 30.06 in 0.8 mi South 5.8 mph - N/A   Overcast
12:51 AM 50.0 °F 48.9 °F 96% 30.06 in 0.8 mi South 4.6 mph - N/A   Overcast
1:51 AM 48.9 °F 48.9 °F 100% 30.05 in 0.8 mi South 4.6 mph - N/A   Overcast
2:03 AM 50.0 °F 48.2 °F 94% 30.04 in 1.0 mi South 5.8 mph - N/A   Overcast
2:21 AM 48.2 °F 48.2 °F 100% 30.04 in 0.8 mi South 5.8 mph - N/A   Overcast
2:40 AM 50.0 °F 48.2 °F 94% 30.04 in 1.0 mi South 5.8 mph - N/A   Overcast
2:51 AM 50.0 °F 48.9 °F 96% 30.04 in 1.0 mi South 4.6 mph - N/A   Overcast
3:16 AM 48.2 °F 48.2 °F 100% 30.03 in 1.0 mi SSE 4.6 mph - N/A   Overcast
3:39 AM 48.2 °F 48.2 °F 100% 30.03 in 1.0 mi SSE 5.8 mph - N/A   Overcast
3:51 AM 48.9 °F 48.9 °F 100% 30.03 in 1.0 mi SSE 5.8 mph - N/A   Overcast
4:40 AM 48.2 °F 48.2 °F 100% 30.01 in 1.0 mi SSE 6.9 mph - N/A   Overcast
4:51 AM 50.0 °F 48.9 °F 96% 30.01 in 1.0 mi SSE 6.9 mph - N/A   Overcast
5:51 AM 48.0 °F 48.0 °F 100% 30.00 in 1.0 mi SSE 5.8 mph - N/A   Partly Cloudy
6:51 AM 51.1 °F 48.9 °F 92% 30.01 in 1.0 mi South 10.4 mph - N/A   Mostly Cloudy
7:01 AM 51.8 °F 48.2 °F 88% 30.00 in 8.0 mi South 10.4 mph - N/A   Overcast
7:51 AM 52.0 °F 48.9 °F 89% 30.01 in 8.0 mi SSW 12.7 mph 20.7 mph N/A   Scattered Clouds
8:51 AM 53.1 °F 48.9 °F 86% 29.99 in 9.0 mi South 13.8 mph 25.3 mph N/A   Overcast
9:08 AM 53.6 °F 50.0 °F 88% 29.99 in 9.0 mi South 15.0 mph - N/A   Overcast
9:51 AM 55.0 °F 51.1 °F 86% 29.99 in 9.0 mi South 12.7 mph - N/A   Overcast
10:37 AM 57.2 °F 51.8 °F 82% 29.97 in 10.0 mi South 11.5 mph - N/A   Overcast
10:51 AM 57.9 °F 53.1 °F 84% 29.97 in 10.0 mi SSW 16.1 mph - N/A   Overcast
11:51 AM 61.0 °F 54.0 °F 78% 29.95 in 10.0 mi SSW 16.1 mph 32.2 mph N/A   Mostly Cloudy
12:51 PM 62.1 °F 54.0 °F 75% 29.91 in 10.0 mi SSW 15.0 mph 25.3 mph N/A   Mostly Cloudy
1:09 PM 62.6 °F 53.6 °F 72% 29.90 in 10.0 mi South 13.8 mph - N/A   Overcast
1:51 PM 63.0 °F 54.0 °F 72% 29.88 in 10.0 mi SSW 21.9 mph 28.8 mph N/A   Overcast
2:51 PM 66.0 °F 54.0 °F 65% 29.87 in 10.0 mi SSW 15.0 mph - N/A   Mostly Cloudy
3:51 PM 66.0 °F 54.0 °F 65% 29.85 in 10.0 mi SSW 13.8 mph - N/A   Overcast
4:51 PM 66.0 °F 54.0 °F 65% 29.83 in 10.0 mi SSW 13.8 mph 23.0 mph N/A   Mostly Cloudy
5:51 PM 63.0 °F 53.1 °F 70% 29.81 in 10.0 mi SSW 8.1 mph - N/A   Mostly Cloudy
6:51 PM 61.0 °F 52.0 °F 72% 29.80 in 10.0 mi SSE 6.9 mph - N/A   Mostly Cloudy
7:51 PM 62.1 °F 51.1 °F 67% 29.79 in 10.0 mi South 9.2 mph - N/A   Mostly Cloudy
8:51 PM 62.1 °F 52.0 °F 70% 29.76 in 10.0 mi South 13.8 mph - N/A   Scattered Clouds
9:51 PM 63.0 °F 53.1 °F 70% 29.74 in 10.0 mi South 13.8 mph - N/A   Mostly Cloudy
10:51 PM 62.1 °F 54.0 °F 75% 29.70 in 10.0 mi South 15.0 mph - N/A   Mostly Cloudy
11:51 PM 62.1 °F 55.0 °F 78% 29.66 in 10.0 mi South 15.0 mph - N/A   Mostly Cloudy